IRIDIUM 120

Last updated on Sun Jun 21 2026 00:03:14 GMT+0000 (Coordinated Universal Time)

1 42805U 17039C 26171.44337104 .00000198 00000+0 63582-4 0 9997 2 42805 86.3963 320.5991 0002060 96.6184 263.5246 14.34217694471648
UTC large
Height (km)
Speed (km/s)
/
Latitude / Longitude
Inclination (degrees)
Orbital Period (minutes)
Azimuth
Elevation
Range (km)
Doppler Factor

Next 0 passes for location: London (51.5072 / 0.1276)

No passes found over London.
IRIDIUM 120